Dewpoint
58 59 61 62 63 64 66 68 68 69 70 68 67 65 63 63 63 63 66 69 70 71 72 70 68 68 68 68 68 68 66 60 58 56 55 57 58 56 56 55 53 55 56
57 59 60 61 61 63 66 68 68 69 70 69 67 64 63 62 63 64 67 70 71 72 72 72 70 68 68 69 69 68 62 61 57 55 54 53 54 54 55 56 55 54 52
56 58 59 60 61 62 65 67 69 69 70 68 67 66 65 65 64 65 67 69 71 71 73 71 70 70 69 69 70 69 66 59 58 61 56 51 50 53 56 57 55 57 54
57 57 58 59 60 62 65 67 69 70 70 70 67 67 64 64 64 66 65 67 71 71 71 72 71 71 69 69 70 69 67 67 58 58 58 61 60 52 53 56 56 56 55
56 57 58 58 59 61 64 66 69 71 71 71 69 68 67 65 65 65 66 70 70 71 70 71 71 72 72 70 71 70 70 66 61 54 58 59 58 58 54 53 54 56 55
55 57 58 58 58 60 63 65 69 72 72 71 71 71 70 68 65 66 65 66 68 69 70 70 70 70 71 71 71 71 70 68 64 56 57 56 54 54 54 52 54 53 54
54 55 58 59 58 60 62 65 68 71 71 71 71 71 71 70 69 68 68 66 65 65 68 71 71 71 72 71 72 72 70 70 66 65 56 57 57 56 54 51 51 51 53
54 54 57 59 60 60 63 64 67 70 70 70 72 73 73 70 69 70 67 67 65 65 66 69 71 71 71 72 72 71 70 69 68 66 61 55 58 59 57 54 52 52 52
52 54 55 58 60 62 64 66 67 70 70 69 72 73 73 72 68 70 71 68 69 66 67 69 71 71 71 71 72 71 70 69 69 66 64 60 55 58 57 56 54 52 49
50 52 55 56 59 61 63 65 67 69 70 70 71 71 71 73 72 72 71 70 69 70 67 70 70 70 71 71 72 70 70 70 68 65 63 63 55 58 58 56 54 53 51
43 48 51 54 56 59 62 64 66 67 68 69 70 71 70 70 72 71 72 73 71 71 71 71 70 70 70 71 72 71 68 70 69 66 64 64 60 56 56 57 55 54 54
36 41 44 50 54 57 59 61 64 65 67 68 71 71 71 71 70 72 72 73 72 72 72 71 71 70 70 71 72 71 68 70 69 68 66 65 63 63 60 58 58 57 56
41 44 43 45 50 54 58 59 61 63 64 67 68 69 70 71 71 72 72 73 73 73 71 72 72 71 70 71 71 72 71 69 70 69 68 66 63 63 58 59 56 58 58
37 39 42 43 47 52 58 61 59 60 62 63 66 68 70 71 71 72 73 73 73 73 73 73 73 72 71 70 70 71 71 70 70 70 69 67 65 63 63 61 61 58 57
33 37 44 47 51 52 57 62 61 60 60 64 64 68 70 72 72 72 73 73 73 73 73 73 73 73 71 69 71 71 70 71 70 70 70 69 67 65 64 61 62 62 61
24 24 31 45 48 52 56 57 61 60 62 64 65 67 70 72 72 73 73 73 73 73 74 73 73 72 70 68 68 71 70 71 71 70 70 69 68 66 64 63 62 63 62
27 29 31 36 42 44 53 56 59 61 63 65 67 68 70 72 72 73 73 73 73 73 73 73 73 73 73 67 66 68 70 71 71 71 70 70 68 67 67 64 62 62 63
27 29 29 27 31 41 40 53 58 63 64 67 68 69 70 71 72 73 73 73 73 73 73 73 73 73 73 70 66 67 70 71 70 70 70 70 69 68 67 67 64 62 62
30 30 30 31 37 39 43 49 57 61 63 67 68 69 70 70 71 72 73 73 73 73 73 73 73 73 73 70 67 66 69 69 71 71 71 71 71 70 66 67 67 65 65
31 32 32 36 38 44 46 51 56 59 64 66 67 69 70 70 71 72 73 73 73 72 71 72 73 73 73 71 67 67 68 67 68 70 72 69 71 69 66 67 67 67 65
42 42 41 40 44 50 51 51 56 58 63 65 65 68 70 71 71 72 73 73 72 71 72 72 73 73 73 73 66 66 70 66 67 65 68 70 68 65 65 66 68 67 66
49 54 47 48 55 59 59 57 61 61 64 65 65 68 70 70 69 72 73 72 72 72 72 72 72 72 73 71 66 64 67 69 66 66 66 69 65 64 63 64 66 66 64
57 58 54 60 63 64 63 63 64 64 65 66 67 68 69 70 70 72 72 71 72 70 70 69 70 69 70 72 69 64 65 67 69 66 67 68 65 62 61 62 63 63 64
59 60 61 62 64 67 68 69 68 68 68 68 69 69 70 70 70 70 70 70 69 70 69 68 69 69 69 69 70 65 63 65 67 66 66 63 61 62 62 60 61 65 64
59 61 61 62 63 63 63 63 64 65 68 68 68 69 69 70 70 71 68 68 69 68 69 69 68 69 68 70 71 67 64 66 66 61 61 61 61 61 61 62 63 65 64
64 64 65 64 62 63 64 66 66 66 64 61 59 59 60 61 65 66 68 67 67 67 66 66 69 69 70 68 67 64 64 63 60 63 62 62 63 63 62 62 62 63 62
Wind_Speed
27 28 28 27 26 24 23 23 23 23 21 20 19 18 17 15 14 13 12 11 11 10 10 11 5 6 4 1 5 4 4 3 3 6 6 7 5 4 4 4 8 5 3
25 28 29 29 28 27 25 24 24 24 23 20 18 16 16 15 15 14 14 14 12 12 12 11 8 8 2 4 4 4 3 2 5 1 1 7 8 6 3 3 4 4 6
29 29 30 31 29 29 28 27 26 24 23 19 17 15 14 14 15 16 15 15 13 12 12 10 10 7 7 8 5 6 4 2 4 3 4 3 1 6 7 5 3 3 5
29 29 31 31 32 32 29 27 26 25 23 23 21 21 19 19 17 16 16 14 14 13 12 10 9 10 8 4 5 5 4 5 4 6 6 4 6 3 7 8 6 5 5
30 31 33 34 32 29 28 28 26 25 23 23 22 22 20 18 15 16 15 15 14 15 14 12 9 10 9 7 5 5 7 6 5 6 6 6 6 5 5 5 10 8 7
31 32 30 28 30 29 28 27 28 27 27 27 28 23 22 20 18 17 17 16 17 16 17 15 13 12 11 9 9 8 9 9 7 6 6 7 6 6 6 6 4 5 10
29 32 32 31 31 32 31 29 28 28 29 30 28 29 26 23 21 18 19 16 17 16 17 18 16 15 14 11 11 10 10 11 10 10 9 8 7 5 5 4 2 5 4
28 31 34 33 33 35 35 33 31 29 30 30 29 27 27 25 24 22 20 19 18 16 15 19 19 18 16 15 13 12 13 12 12 12 12 9 9 8 8 7 5 6 6
28 32 34 34 33 34 34 34 33 32 32 33 29 29 28 28 27 25 22 21 17 16 16 19 21 20 19 17 16 15 14 13 14 13 13 12 10 9 9 8 8 7 5
27 28 30 33 35 36 36 36 35 35 35 33 31 30 30 29 28 23 24 23 22 21 17 20 20 21 20 19 19 17 16 16 15 15 15 15 13 11 10 9 9 8 8
25 27 28 30 31 31 32 35 35 34 33 33 33 31 31 31 29 28 27 25 23 21 22 21 22 22 21 21 20 19 18 19 18 17 17 17 12 12 12 11 11 10 10
20 20 21 22 26 30 32 35 36 36 37 35 32 33 31 31 31 30 30 27 27 25 24 24 23 23 24 23 23 23 22 22 21 21 19 17 15 16 13 13 12 12 10
11 15 17 21 24 26 30 31 33 36 35 32 34 33 33 32 32 31 30 28 28 28 29 26 26 25 25 24 24 24 25 24 23 22 21 19 19 19 16 16 13 13 11
12 12 15 20 22 24 26 30 33 34 33 34 35 34 34 36 33 31 31 31 29 29 29 28 28 27 26 26 26 27 26 25 25 23 22 21 21 21 19 17 16 11 13
4 7 12 15 18 19 23 27 30 29 31 31 34 34 34 31 30 31 30 30 30 30 29 28 28 28 29 28 28 28 27 26 26 24 23 22 22 23 20 17 17 15 16
21 20 14 16 17 20 22 24 27 29 29 28 33 29 28 29 30 28 30 29 30 30 30 31 30 31 30 32 35 30 28 27 26 25 24 22 22 23 24 25 16 18 17
21 19 17 18 17 18 19 22 24 25 28 30 27 29 28 30 29 27 28 31 31 29 31 31 31 32 33 34 39 41 31 30 27 26 24 23 21 23 22 25 24 20 21
23 22 22 19 17 17 17 16 19 24 27 28 29 28 29 28 26 27 31 30 29 32 31 32 32 32 33 35 38 39 35 26 26 25 25 24 22 22 24 21 23 23 23
25 23 23 22 18 19 18 15 19 23 26 29 32 31 28 28 28 31 32 30 29 29 31 30 31 34 34 36 39 37 32 30 25 25 25 24 25 22 28 24 23 23 21
22 22 20 16 16 18 17 18 21 23 28 29 27 26 27 28 31 30 29 27 29 30 28 30 32 33 34 34 40 39 31 29 29 28 25 27 26 23 29 26 22 21 19
19 17 17 17 16 12 14 19 20 26 23 23 24 24 26 28 28 27 26 26 28 27 28 29 29 31 33 32 38 46 36 31 29 29 27 24 29 20 30 28 19 19 19
17 14 13 12 11 10 14 18 19 17 18 19 21 22 23 24 25 25 24 25 26 26 27 28 29 30 31 36 33 44 47 33 29 29 26 26 31 30 30 32 19 20 19
12 9 10 7 5 7 10 12 10 12 15 18 19 20 21 22 21 23 24 25 25 28 29 29 31 30 29 30 38 41 50 44 31 26 26 26 33 33 27 27 22 19 16
2 1 2 5 6 6 8 9 9 9 11 13 14 15 17 19 20 20 22 24 25 27 29 27 29 29 27 27 26 28 32 41 21 14 22 21 21 21 20 20 20 17 16
3 5 6 7 9 10 10 8 6 4 6 7 9 11 13 16 17 20 20 22 23 25 26 28 27 25 29 26 22 22 22 23 24 29 24 23 24 22 19 19 18 17 16
5 9 10 9 9 10 10 9 8 6 3 3 5 5 8 11 14 16 18 16 16 9 15 22 26 26 31 23 29 34 35 34 37 25 24 26 26 24 23 21 19 18 19
Wind_Direction
194 196 199 200 201 200 197 198 198 196 192 195 198 203 205 204 212 216 214 213 224 225 229 247 210 242 241 214 165 189 149 120 131 153 135 119 143 122 116 78 71 102 74
195 197 199 201 202 200 200 199 201 199 198 196 200 203 205 207 210 209 208 218 227 230 231 235 211 223 215 202 186 218 156 94 157 256 188 157 155 148 121 96 99 44 98
197 196 198 201 201 202 201 201 201 201 199 205 197 198 206 220 210 212 209 213 222 220 220 225 207 203 245 199 191 198 229 134 168 258 303 177 142 153 164 181 143 162 112
203 197 199 200 202 204 201 203 202 203 199 199 196 199 204 205 209 212 212 212 211 215 213 222 208 210 227 245 193 202 240 246 181 181 217 314 348 265 164 178 190 195 198
203 200 200 201 203 201 202 202 203 204 202 196 211 197 211 210 208 215 212 214 204 218 215 213 213 216 225 206 228 196 219 199 259 210 179 206 211 223 291 173 176 212 217
205 202 201 200 201 202 202 201 200 203 202 199 205 208 205 218 212 208 209 216 219 209 219 216 210 218 226 221 211 206 209 227 218 230 222 218 210 196 220 231 214 239 181
206 202 201 198 201 202 202 203 203 204 203 204 206 211 213 211 218 211 212 212 216 217 206 211 209 207 214 220 216 204 213 208 208 212 216 225 228 232 238 259 227 244 189
205 205 202 202 200 201 200 200 200 203 204 207 208 208 210 214 218 216 224 217 222 214 214 204 213 214 209 212 207 208 218 209 210 209 226 223 219 213 217 223 228 205 211
203 205 206 205 203 203 202 202 200 200 201 205 207 209 209 214 218 221 212 225 220 221 210 209 209 208 207 205 204 220 210 213 213 210 212 224 219 216 222 222 227 248 233
201 205 207 208 207 206 205 203 203 201 201 203 206 210 210 211 216 213 217 216 218 217 208 207 207 206 205 205 208 215 210 213 216 220 210 217 220 212 220 227 229 236 251
200 202 207 209 212 210 208 207 208 208 205 205 206 207 209 211 212 215 213 213 214 209 214 203 207 206 206 207 208 218 214 213 217 222 218 217 223 223 219 218 227 228 230
211 213 210 206 208 210 209 209 209 208 208 207 205 206 206 208 211 211 212 209 210 210 208 206 208 209 211 209 210 214 216 214 217 219 223 217 209 218 230 222 218 225 218
227 221 208 208 209 209 209 213 212 214 211 207 208 209 209 209 212 209 210 210 210 208 209 209 207 207 210 210 212 216 219 218 221 221 221 216 211 212 219 220 214 224 231
221 220 224 214 212 208 207 209 213 213 212 209 211 209 209 209 208 207 206 207 207 209 210 208 207 208 210 211 214 216 219 220 223 224 222 217 210 215 211 209 223 216 225
218 237 235 218 217 218 214 212 215 213 210 208 211 211 211 210 208 206 206 208 206 208 207 208 210 207 211 214 214 216 218 219 223 223 222 219 211 215 210 209 211 213 218
276 275 249 228 227 225 223 219 216 214 207 210 212 211 210 209 209 207 206 207 210 208 207 209 209 209 211 213 209 211 215 217 219 221 221 221 203 213 212 210 216 207 217
271 271 241 233 239 235 226 222 216 211 208 209 208 209 206 209 209 207 205 208 210 208 212 211 210 213 215 212 207 206 213 213 215 217 218 214 214 209 215 217 219 215 215
261 262 263 266 253 244 242 216 210 206 209 203 204 205 208 209 206 206 210 210 208 211 212 214 213 213 217 213 208 206 214 221 218 219 221 218 215 206 211 208 215 220 218
260 263 264 265 262 251 243 230 208 202 205 205 204 202 201 203 205 210 211 209 208 212 215 214 214 216 220 213 211 202 210 221 221 218 221 218 217 210 195 204 211 215 219
263 264 264 260 249 243 237 214 209 203 208 210 209 206 202 202 206 209 210 209 210 214 214 219 220 219 221 215 206 199 211 215 216 214 218 212 216 203 188 204 209 214 207
281 268 254 246 243 234 215 213 209 209 210 208 209 207 205 207 210 209 209 209 213 217 216 221 221 223 220 223 205 199 207 214 211 219 216 215 204 192 184 193 209 210 197
278 274 256 236 233 234 217 205 208 209 203 206 208 207 209 210 210 212 211 211 213 216 222 219 224 224 225 219 209 203 208 212 214 212 210 206 187 187 180 188 199 196 198
278 268 246 218 219 212 203 190 187 189 193 200 204 207 209 213 220 207 211 215 215 222 220 222 225 227 221 221 211 206 205 213 216 215 210 182 178 178 176 183 189 179 189
277 73 140 152 118 101 123 130 152 172 184 193 200 205 209 213 217 219 215 218 221 221 231 228 232 234 232 228 213 204 205 209 213 156 143 148 151 162 158 158 172 165 212
90 85 96 94 89 88 84 77 75 102 154 182 197 204 212 210 220 225 226 224 228 229 227 233 236 234 237 224 220 190 190 192 185 137 137 147 153 152 153 162 169 175 191
72 71 59 57 64 67 56 45 44 47 58 179 197 217 233 222 219 234 230 236 251 255 260 260 245 240 231 213 185 175 172 163 153 151 156 162 159 160 161 166 172 182 188